Regional Weather Roundup
Issued by NWS

Home | Current Version | Previous Version | Graphics & Text | Print | Product List | Glossary On
Versions: 1 2 3 4 5 6 7 8 9 10 11 12 13 14 15 16 17 18 19 20 21 22 23 24 25 26 27 28 29 30 31 32 33 34 35 36 37 38 39 40 41 42 43 44 45 46 47 48 49 50
000
ASUS43 KFSD 161910
RWRSD

WEATHER ROUNDUP FOR SOUTH DAKOTA
NATIONAL WEATHER SERVICE SIOUX FALLS SD
200 PM CDT TUE SEP 16 2014

NOTE: "FAIR" INDICATES FEW OR NO CLOUDS BELOW 12,000 FEET WITH NO
SIGNIFICANT WEATHER AND/OR OBSTRUCTIONS TO VISIBILITY.


SDZ001>005-009-010-012>017-162000-
NORTHWEST AND NORTH CENTRAL SOUTH DAKOTA

CITY           SKY/WX    TMP DP  RH WIND       PRES   REMARKS
BUFFALO          N/A     76  44  32 CALM      29.92F
FAITH            N/A     74  47  38 CALM      29.97F
MOBRIDGE       SUNNY     69  50  50 W5        29.95F
$$

SDZ012>016-024>037-041>051-057-063-072>074-162000-
SOUTHWEST AND SOUTH CENTRAL SOUTH DAKOTA

CITY           SKY/WX    TMP DP  RH WIND       PRES   REMARKS
RAPID CTY ARPT SUNNY     77  45  32 MISG      30.00F
PIERRE         SUNNY     71  52  50 VRB5      29.95F
CUSTER         SUNNY     77  27  15 W15G23    30.12F
ELLSWORTH AFB  SUNNY     78  45  31 SE2       30.00F
PHILIP         SUNNY     75  52  44 S6        29.96F
PINE RIDGE     SUNNY     76  52  43 W6        30.02F
WINNER         FAIR      72  53  51 SW13      29.97F
$$

SDZ004>011-016>023-039-040-162000-
NORTHEAST SOUTH DAKOTA

CITY           SKY/WX    TMP DP  RH WIND       PRES   REMARKS
ABERDEEN       SUNNY     67  48  50 S7        29.99F
WATERTOWN      MOSUNNY   67  47  48 S16G23    30.02F
SISSETON         N/A     71  47  42 S10G16    30.00F
$$

SDZ017-020-022-023-036>040-048>070-162000-
SOUTHEAST SOUTH DAKOTA

CITY           SKY/WX    TMP DP  RH WIND       PRES   REMARKS
SIOUX FALLS    PTSUNNY   67  48  50 S13       30.07F
HURON          SUNNY     70  50  49 S14G23    29.99F
CHAMBERLAIN    SUNNY     71  54  55 S9G16     29.97F
MITCHELL       SUNNY     70  52  52 S16G22    30.01F
YANKTON        PTSUNNY   66  50  55 S17       30.06F
$$

ABBREVIATIONS USED IN REMARKS
   TC - TEMPERATURE IN CELSIUS
  WCI - WIND CHILL INDEX
   HX - HEAT INDEX
  VSB - VISIBILITY




USA.gov is the U.S. government's official web portal to all federal, state and local government web resources and services.